User: anonymous   Login
Location: Unspecified
(0.0000°N, 0.0000°E)
Time: 18:46:04
(UTC+00:00)
Language:

Tiangong 1 - Orbit

View from above orbital plane
View from above orbital plane
View from above satellite
View from above satellite

Ground track
Ground track

The orbit data is extracted from the following two-line orbital elements,

1 37820U 11053A   17206.26158495 +.00025403 +00000-0 +12960-3 0  9991
2 37820 042.7597 326.5376 0019966 345.8945 087.7138 15.80548023333994
Epoch (UTC): 25 July 2017 06:16:40
Eccentricity: 0.0019966
inclination: 42.7597°
perigee height: 315 km
apogee height: 342 km
right ascension of ascending node: 326.5376°
argument of perigee: 345.8945°
revolutions per day: 15.80548023
mean anomaly at epoch: 87.7138°
orbit number at epoch: 33399

The dashed part of the orbit path shows where the satellite is in the earth's shadow,  

DLR